Home   Weather   Dover   Past weeks

Flag for USA Past Weather in Dover, Delaware, USA — Yesterday and Last 2 Weeks

Now
73 °F

Partly cloudy.


Feels Like: 68 °F
Forecast: 76 / 86 °F
Wind: 9 mph from Southwest

Location: Dover Air Force Base

Current Time: Jul 23, 2017 at 5:06:30 am

Latest Report: Jul 23, 2017 at 3:58 am


Visibility: 10 mi

Pressure: 29.75 "Hg

Humidity: 100%

Dew Point: 73 °F

Location of DoverLocation

Past Weather in Dover — Graph

°F

Dover Temperature Yesterday

Maximum temperature yesterday: 89 °F (at 2:58 pm)
Minimum temperature yesterday: 75 °F (at 3:02 am)
Average temperature yesterday: 82 °F

High & Low Weather Summary for the Past Weeks

 TemperatureHumidityPressure
High94 °F (Jul 13, 1:58 pm)100% (Jul 8, 4:58 am)30.11 "Hg (Jul 8, 4:58 am)
Low66 °F (Jul 10, 1:58 am)41% (Jul 9, 5:58 pm)29.75 "Hg (Jul 23, 3:17 am)
Average80 °F87%29.97 "Hg
* Reported Jul 8 3:58 am — Jul 23 3:17 am, Dover. Weather by CustomWeather, © 2017

Note: Actual official high and low records may vary slightly from our data, if they occured in-between our weather recording intervals... More about our weather records

Advertising

Dover Weather History for the Previous 24 Hours

Scroll right to see more
 ConditionsComfort  
Time TempWeatherWind HumidityBarometerVisibility
3:17 am
Sun, Jul 23
73 °FPartly cloudy.8 mph100%29.75 "Hg10 mi
1:58 am74 °FPassing clouds.10 mph100%29.77 "Hg10 mi
12:58 am75 °FOvercast.10 mph100%29.77 "Hg10 mi
12:21 am75 °FLight rain. Overcast.15 mph100%29.78 "Hg10 mi
11:58 pm
Sat, Jul 22
76 °FMostly cloudy.16 mph100%29.79 "Hg10 mi
6:58 pm83 °FSunny.8 mph85%29.76 "Hg10 mi
6:04 pm84 °FPassing clouds.12 mph79%29.78 "Hg10 mi
5:58 pm85 °FSunny.10 mph80%29.77 "Hg10 mi
4:58 pm89 °FSunny.5 mph74%29.77 "Hg10 mi
3:58 pm89 °FSunny.6 mph93%29.80 "Hg9 mi
2:58 pm89 °FPassing clouds.5 mph95%29.82 "Hg9 mi
1:58 pm88 °FBroken clouds.3 mph97%29.83 "Hg9 mi
12:58 pm87 °FScattered clouds.7 mph100%29.85 "Hg9 mi
12:15 pm88 °FBroken clouds.No wind94%29.87 "Hg9 mi
11:58 am88 °FScattered clouds.6 mph96%29.86 "Hg9 mi
10:58 am85 °FScattered clouds.No wind100%29.87 "Hg9 mi
9:58 am83 °FScattered clouds.No wind100%29.88 "Hg10 mi
9:27 am82 °FPassing clouds.No wind100%29.89 "Hg9 mi
8:58 am81 °FPassing clouds.3 mph100%29.88 "Hg10 mi
7:59 am79 °FPassing clouds.6 mph100%29.88 "Hg9 mi
6:58 am77 °FSunny.No wind100%29.86 "Hg10 mi
5:58 am77 °FScattered clouds.3 mph65%29.86 "Hg10 mi
5:43 am75 °FPassing clouds.3 mph100%29.86 "Hg10 mi
5:13 am75 °FClear.3 mph100%29.85 "Hg9 mi
Weather by CustomWeather, © 2017

See weather overviewHow to use our weather pages